{"data":{"norad_id":57529,"epoch":"2026-05-25T03:02:41.947296Z","epoch_age_seconds":70877,"freshness":"FRESH","line1":"1 57529U 23115J   26145.12687439  .00000449  00000+0  25827-4 0  9992","line2":"2 57529  43.0004 289.7328 0001258 279.1752  80.8957 15.27578435154047","mean_motion":15.27578435,"eccentricity":0.0001258,"inclination_deg":43.0004,"raan_deg":289.7328,"arg_perigee_deg":279.1752,"mean_anomaly_deg":80.8957,"bstar":2.5827e-5,"rev_number":15404,"period_min":94.266845289682,"perigee_km":482.19064441626,"apogee_km":483.91692001706,"semimajor_km":6861.1907822167,"source":"CELESTRAK","updated_at":"2026-05-25T13:38:18.333491Z"}}